Weather History for Princeton, MN

Change the Weather History Date:

Sunday, April 20, 2014

  Actual Average Record
Temperature  
Mean Temperature 52 °F -  
Max Temperature 73 °F 58 °F 140 °F (1997)
Min Temperature 32 °F 33 °F 6 °F (2013)
Degree Days  
Heating Degree Days 12    
Growing Degree Days 2 (Base 50)    
Moisture  
Dew Point 36 °F    
Average Humidity 62    
Maximum Humidity 100    
Minimum Humidity 23    
Precipitation  
Precipitation 0.00 in - - ()
Sea Level Pressure  
Sea Level Pressure 30.01 in    
Wind  
Wind Speed 1 mph (NNE)    
Max Wind Speed 7 mph    
Max Gust Speed -    
Visibility 7 miles    
Events Fog    
Averages and records for this station are not official NWS values.
T = Trace of Precipitation, MM = Missing Value Source: NWS Daily Summary

Daily Weather History Graph

Daily Weather History Graph

Search for Another Location

Airport:

Trip Planner

Search our weather history database for the weather conditions in past years. The results will help you decide how hot, cold, wet, or windy it might be!

Date:

Astronomy

Apr. 20, 2014 Rise Set
Actual Time 6:20 AM CDT 8:07 PM CDT
Civil Twilight 5:48 AM CDT 8:38 PM CDT
Nautical Twilight 5:10 AM CDT 9:17 PM CDT
Astronomical Twilight 4:28 AM CDT 9:59 PM CDT
Moon 12:53 AM CDT (4/20) 10:35 AM CDT (4/20)
Length of Visible Light 14h 50m
Length of Day
13h 47m
Waning Gibbous, 68% of the Moon is Illuminated
Apr 20
Waning Gibbous
Apr 22
Last Quarter
Apr 29
New
May 6
First Quarter
May 14
Full

Hourly Weather History & Observations

Time (CDT) Temp. Windchill Dew Point Humidity Pressure Visibility Wind Dir Wind Speed Gust Speed Precip Events Conditions
12:13 AM 35.6 °F - 35.6 °F 100% 30.01 in 0.2 mi Calm Calm - N/A Fog Fog
12:33 AM 35.6 °F - 35.6 °F 100% 30.02 in 0.2 mi Calm Calm - N/A Fog Fog
12:53 AM 35.6 °F - 35.6 °F 100% 30.02 in 0.5 mi Calm Calm - N/A Fog Fog
1:13 AM 35.6 °F - 33.8 °F 93% 30.02 in 0.5 mi Calm Calm - N/A Fog Fog
1:33 AM 35.6 °F - 33.8 °F 93% 30.02 in 0.2 mi Calm Calm - N/A Fog Fog
1:53 AM 35.6 °F - 33.8 °F 93% 30.02 in 0.2 mi Calm Calm - N/A Fog Fog
2:13 AM 33.8 °F - 33.8 °F 100% 30.02 in 0.2 mi Calm Calm - N/A Fog Fog
2:33 AM 33.8 °F - 33.8 °F 100% 30.01 in 0.2 mi Calm Calm - N/A Fog Fog
2:54 AM 33.8 °F - 32.0 °F 93% 30.01 in 0.2 mi Calm Calm - N/A Fog Fog
3:13 AM 33.8 °F - 30.2 °F 87% 30.02 in 0.2 mi Calm Calm - N/A Fog Fog
3:33 AM 33.8 °F - 30.2 °F 87% 30.02 in 0.2 mi Calm Calm - N/A Fog Fog
3:54 AM 33.8 °F - 30.2 °F 87% 30.02 in 0.2 mi Calm Calm - N/A Fog Fog
4:13 AM 32.0 °F - 30.2 °F 93% 30.02 in 0.2 mi Calm Calm - N/A Fog Fog
4:33 AM 32.0 °F - 30.2 °F 93% 30.03 in 0.2 mi Calm Calm - N/A Fog Fog
4:54 AM 32.0 °F - 30.2 °F 93% 30.04 in 0.2 mi Calm Calm - N/A Fog Fog
5:13 AM 33.8 °F - 32.0 °F 93% 30.04 in 0.2 mi Calm Calm - N/A Fog Fog
5:33 AM 32.0 °F - 30.2 °F 93% 30.04 in 0.2 mi Calm Calm - N/A Fog Fog
5:54 AM 33.8 °F - 32.0 °F 93% 30.04 in 0.8 mi Calm Calm - N/A   Mostly Cloudy
6:13 AM 32.0 °F - 30.2 °F 93% 30.05 in 2.5 mi Calm Calm - N/A   Clear
6:34 AM 32.0 °F - 30.2 °F 93% 30.05 in 3.0 mi Calm Calm - N/A   Clear
6:53 AM 32.0 °F - 30.2 °F 93% 30.05 in 2.0 mi Calm Calm - N/A   Clear
7:13 AM 32.0 °F - 30.2 °F 93% 30.05 in 4.0 mi Calm Calm - N/A   Clear
7:33 AM 33.8 °F - 32.0 °F 93% 30.06 in 3.0 mi Calm Calm - N/A   Clear
7:53 AM 37.4 °F - 37.4 °F 100% 30.05 in 2.0 mi Calm Calm - N/A   Clear
8:13 AM 42.8 °F - 41.0 °F 93% 30.05 in 4.0 mi Calm Calm - N/A   Clear
8:33 AM 44.6 °F 43.1 °F 44.6 °F 100% 30.05 in 10.0 mi NE 3.5 mph - N/A   Clear
8:53 AM 46.4 °F 43.5 °F 46.4 °F 100% 30.05 in 10.0 mi NE 5.8 mph - N/A   Clear
9:13 AM 51.8 °F - 42.8 °F 71% 30.05 in 10.0 mi NE 3.5 mph - N/A   Clear
9:33 AM 51.8 °F - 42.8 °F 71% 30.05 in 10.0 mi Calm Calm - N/A   Clear
9:53 AM 53.6 °F - 42.8 °F 67% 30.06 in 10.0 mi Calm Calm - N/A   Clear
10:13 AM 55.4 °F - 42.8 °F 63% 30.05 in 10.0 mi NE 3.5 mph - N/A   Clear
10:33 AM 57.2 °F - 42.8 °F 59% 30.05 in 10.0 mi NNE 3.5 mph - N/A   Clear
10:53 AM 59.0 °F - 42.8 °F 55% 30.05 in 10.0 mi ENE 4.6 mph - N/A   Clear
11:13 AM 60.8 °F - 42.8 °F 52% 30.05 in 10.0 mi ENE 3.5 mph - N/A   Clear
11:33 AM 62.6 °F - 41.0 °F 45% 30.05 in 10.0 mi NE 3.5 mph - N/A   Clear
11:53 AM 62.6 °F - 39.2 °F 42% 30.05 in 10.0 mi North 3.5 mph - N/A   Clear
12:13 PM 64.4 °F - 39.2 °F 40% 30.04 in 10.0 mi NNE 3.5 mph - N/A   Clear
12:33 PM 66.2 °F - 37.4 °F 35% 30.04 in 10.0 mi Calm Calm - N/A   Clear
1:13 PM 68.0 °F - 39.2 °F 35% 30.02 in 10.0 mi Calm Calm - N/A   Clear
1:33 PM 69.8 °F - 39.2 °F 33% 30.02 in 10.0 mi SE 4.6 mph - N/A   Unknown
1:53 PM 69.8 °F - 37.4 °F 31% 30.01 in 10.0 mi Calm Calm - N/A   Unknown
2:13 PM 69.8 °F - 35.6 °F 28% 30.00 in 10.0 mi Calm Calm - N/A   Clear
2:33 PM 71.6 °F - 37.4 °F 29% 30.00 in 10.0 mi East 3.5 mph - N/A   Clear
2:53 PM 71.6 °F - 35.6 °F 27% 29.99 in 10.0 mi Calm Calm - N/A   Clear
3:14 PM 71.6 °F - 35.6 °F 27% 29.99 in 10.0 mi North 3.5 mph - N/A   Clear
3:33 PM 71.6 °F - 35.6 °F 27% 29.99 in 10.0 mi Calm Calm - N/A   Clear
3:53 PM 73.4 °F - 33.8 °F 23% 29.98 in 10.0 mi ENE 3.5 mph - N/A   Clear
4:14 PM 73.4 °F - 35.6 °F 25% 29.98 in 10.0 mi North 5.8 mph - N/A   Clear
4:33 PM 73.4 °F - 37.4 °F 27% 29.97 in 10.0 mi North 6.9 mph - N/A   Clear
4:53 PM 73.4 °F - 35.6 °F 25% 29.97 in 10.0 mi NNW 4.6 mph - N/A   Clear
5:14 PM 71.6 °F - 35.6 °F 27% 29.97 in 10.0 mi North 4.6 mph - N/A   Clear
5:33 PM 73.4 °F - 35.6 °F 25% 29.96 in 10.0 mi North 5.8 mph - N/A   Clear
5:53 PM 71.6 °F - 33.8 °F 25% 29.96 in 10.0 mi NNE 4.6 mph - N/A   Clear
6:14 PM 71.6 °F - 33.8 °F 25% 29.96 in 10.0 mi North 4.6 mph - N/A   Clear
6:33 PM 71.6 °F - 33.8 °F 25% 29.96 in 10.0 mi North 4.6 mph - N/A   Clear
6:53 PM 69.8 °F - 32.0 °F 25% 29.96 in 10.0 mi NNE 4.6 mph - N/A   Clear
7:13 PM 69.8 °F - 33.8 °F 27% 29.95 in 10.0 mi NNE 4.6 mph - N/A   Clear
7:33 PM 68.0 °F - 32.0 °F 26% 29.95 in 10.0 mi NNE 3.5 mph - N/A   Clear
7:53 PM 66.2 °F - 32.0 °F 28% 29.95 in 10.0 mi Calm Calm - N/A   Scattered Clouds
8:13 PM 62.6 °F - 33.8 °F 34% 29.95 in 10.0 mi Calm Calm - N/A   Clear
8:33 PM 57.2 °F - 42.8 °F 59% 29.95 in 10.0 mi Calm Calm - N/A   Scattered Clouds
8:53 PM 57.2 °F - 37.4 °F 48% 29.95 in 10.0 mi NE 3.5 mph - N/A   Scattered Clouds
9:13 PM 59.0 °F - 37.4 °F 45% 29.96 in 5.0 mi Calm Calm - N/A   Haze
9:33 PM 57.2 °F - 46.4 °F 67% 29.96 in 10.0 mi Calm Calm - N/A   Clear
9:53 PM 55.4 °F - 35.6 °F 47% 29.95 in 7.0 mi Calm Calm - N/A   Clear
10:13 PM 53.6 °F - 35.6 °F 51% 29.95 in 10.0 mi Calm Calm - N/A   Clear
10:33 PM 51.8 °F - 37.4 °F 58% 29.95 in 10.0 mi Calm Calm - N/A   Clear
10:53 PM 51.8 °F - 37.4 °F 58% 29.95 in 10.0 mi Calm Calm - N/A   Clear
11:13 PM 50.0 °F - 37.4 °F 62% 29.95 in 10.0 mi Calm Calm - N/A   Clear
11:33 PM 48.2 °F - 37.4 °F 66% 29.95 in 10.0 mi Calm Calm - N/A   Clear
11:53 PM 48.2 °F - 39.2 °F 71% 29.94 in 10.0 mi East 4.6 mph - N/A   Clear